sat.trackr.live / text

‹ back to catalog

STARLINK-35826

NORAD 66375 · 2025-254AD

PAYLOAD ACTIVE UNKNOWN

§ Identity

Operator
Country
US
Launch date
2025-11-06
Launch site
AFWTR
Launch vehicle
Mass (kg)
RCS (m²)

Purposes: comms

External: N2YO · Heavens-Above · Gunter

§ Orbital elements

Epoch: 2026-09-20T15:41:05.068032Z

Period
93.85 min
Inclination
53.1620°
Eccentricity
0.0000995
Mean motion
15.34417975 rev/d
Perigee alt
462.0 km
Apogee alt
463.3 km
Semi-major
6,840.8 km
B*
4.0541e-4
RAAN
42.6965°
Arg perigee
86.5945°
Mean anomaly
273.5171°
Rev number
4,888

§ Raw data

STARLINK-358261 66375U 25254AD  26263.65353088  .00013353  00000+0  40541-3 0  99932 66375  53.1620  42.6965 0000995  86.5945 273.5171 15.34417975 48888

JSON: /api/v1/satellites/66375 · /tle

For live sub-satellite position, see the globe view (requires WebGL).

§ Visibility from observer

Set your observer location to see the next 7 days of passes ≥ 10°. The values pass through the URL so the page stays shareable.

No JS? Fill the form by hand. The geolocation button needs JavaScript.